Showing default

OPS 1593 (TRANSIT 11), 1952

Orbit data source: Space-Track

OPS 1593 (TRANSIT 11), 1952 is a payload satellite owned by USN BuWeps (US) in LEO that was launched on Fri, 28 Jan 1966 UTC via an SCOUT A launch vehicle from the Air Force Western Test Range (AFWTR). Payloads include a variety of satellites, spacecraft, and rockets equipped with specific instruments for various scientific and technological missions. These include communications satellites like Starlink; space stations such as the ISS; scientific satellites like the Hubble; Earth observation satellites from companies like Planet Labs, Umbra, and HawkEye 360; GPS; miniature CubeSats for education and research; and military/defense satellites.

Loading next visibility...
OPS 1593 (TRANSIT 11) details
Identifier
1952, 1966-005A
Orbit
LEO
Last TLE update21 hours ago
Origin
Flag of USUSN BuWeps (US)
ManufacturerNAFI
MissionDefense Navigation
Bus & MotorTRANSIT 5, Unknown motor
Mass~50 kg wet, ~50 kg dry
Launch date (UTC)
1966-01-28 (59 years ago)
Launch vehicle
SCOUT A
Launch site
Air Force Western Test Range (AFWTR)
Object type
Payload
Rocket body
Debris
Shape & HBROct Cyl + 4 Pan + 1 Rod, Unknown HBR
Radar Cross Section7.565 m², Large (>1 m²)

Expand to show TLE details & history

TLE from 21 hours ago
0 OPS 1593 (TRANSIT 11)
1 01952U 66005A   24355.67943211  .00000264  00000-0  25511-3 0  9995
2 01952  90.1546 343.2372 0216822 199.7414 159.5261 13.67862822931843
Epoch: 2024-12-20T16:18Z
Definitive object data (Epoch: 2024-12-20T16:18:22.934Z)
Latitude0.00002°
Longitude8.90016°
Altitude1,160.693 km
Speed7.198 km/s
True Right ascension22h 52m 56s
True Declination0° 00' 00"
Sunlit
Object was in daylight at TLE epoch
Visualization TLE readout
Latitude-79.29175°
Longitude9.72737°
Altitude1,014.13 km
Speed7.355 km/s
Apparent Right ascension23h 46m 35s
Apparent Declination-61° 08' 35"
Sunlit
Object is in daylight
Visualization observer readout
Local Sidereal Time12:00:38
Azimuth175.339° S
Elevation-68.663°
Doppler factor1
Orbital elements
Apogee altitude1,164.342 km
Perigee altitude844.209 km
Semi-major axis7,382.412 km
Eccentricity0.0216822
Inclination90.1546°
RAAN343.2372°
Arg. of periapsis199.7414°
True anomaly160.37359°
Mean anomaly159.5261°
Eccentric anomaly159.95197°
Mean motion3.42173 °/min
BSTAR0.00025511
Orbital period105.21 mins
Loading maneuver chart data...
Loading historical data...
Loading historical data...
Loading historical data...
Loading historical data...
Loading historical data...
Loading historical data...
Loading historical data...

OPS 1593 (TRANSIT 11) Visibility forecast

Observer location: undefined°, undefined

Span
Click to sort rows by Start time (UTC) header in descending order
Start Az.
Max El. time (UTC)
Max El. Az.
Max El.
End time (UTC)
End Az.
9 mins2024-12-21 22:17:44.936Z114.789° SE2024-12-21 22:21:44.936Z77.966° E19.981°2024-12-21 22:26:44.936Z29.474° NE
12 mins2024-12-22 00:00:44.936Z188.184° SSW2024-12-22 00:06:44.936Z276.652° WNW42.899°2024-12-22 00:12:44.936Z351.226° N
9 mins2024-12-22 11:03:44.936Z21.399° NNE2024-12-22 11:07:44.936Z73.264° E32.972°2024-12-22 11:12:44.936Z152.328° SSE
7 mins2024-12-22 12:49:44.936Z327.281° NNW2024-12-22 12:52:44.936Z289.164° WNW23.093°2024-12-22 12:56:44.936Z237.407° WSW
|